Location: Alcal� del Obispo
(42.0773°N, 0.2912°W)
Time: 06:57:32
(UTC+00:00)

Daily predictions for brighter satellites

Satellite Brightness Start Highest point End
(mag) Time Altitude Azimuth Time Altitude Azimuth Time Altitude Azimuth
Cosmos 2058 Rocket 3.4 17:35:46 10° SSE 17:39:52 42° E 17:43:59 10° NNE
Cosmos 839 Rocket 4.3 17:36:03 10° NNW 17:42:06 51° NE 17:48:58 10° SE
Cosmos 1626 3.7 17:38:51 10° NNW 17:42:23 41° W 17:45:52 10° SSW
Cosmos 1470 4.4 17:38:51 10° SSW 17:42:36 40° WNW 17:46:23 10° N
Cosmos 1726 2.5 17:41:07 10° SSE 17:44:32 40° E 17:47:59 10° NNE
Lacrosse 5 rocket 2.2 17:43:54 10° NW 17:47:33 49° SW 17:51:24 10° SSE
CSL-04 Rocket 4.2 17:43:13 10° SE 17:48:14 37° ENE 17:53:14 10° N
Okean-O 2.8 17:48:17 10° SSE 17:52:43 83° W 17:57:10 10° NNW
Cosmos 292 Rocket 3.7 17:49:30 10° S 17:54:12 67° ESE 17:58:55 10° NNE
Cosmos 1939 Rocket 4.3 17:53:52 10° ESE 17:56:34 18° ENE 17:59:17 10° NNE
Cosmos 1328 3.9 17:53:25 10° N 17:57:18 50° E 18:01:08 10° SSE
COSMO-SKYMED 1 2.6 17:53:36 10° NNE 17:57:54 57° E 18:02:09 10° S
Cosmos 1821 Rocket 4.4 17:59:04 10° NNW 18:05:09 70° W 18:11:16 10° S
Cosmos 1605 Rocket 4.1 17:59:44 10° N 18:05:44 50° ENE 18:11:37 10° SSE
ASTEX 1 3.4 18:00:50 10° N 18:05:48 73° E 18:10:46 10° S
Cosmos 1953 Rocket 4.0 18:02:51 10° NNW 18:07:11 66° W 18:11:27 10° S
Cosmos 1833 Rocket 3.2 18:02:47 10° N 18:07:59 37° ENE 18:13:09 10° SE
Cosmos 1461 3.9 18:05:02 10° N 18:08:33 27° NE 18:11:01 16° E
Cosmos 1271 Rocket 4.1 18:06:13 10° NNW 18:10:03 46° W 18:13:52 10° SSW
Meteor 2-10 3.9 18:05:59 10° S 18:11:03 81° E 18:16:07 10° NNE
Envisat 3.1 18:07:26 10° SSE 18:12:30 85° WSW 18:17:38 10° NNW
Cosmos 1934 Rocket 4.0 18:06:14 10° N 18:12:37 86° E 18:18:59 10° S
OAO 3 Rocket 4.3 18:09:14 10° WSW 18:13:42 36° S 18:17:42 13° ESE
Cosmos 1727 Rocket 4.4 18:08:26 10° SSE 18:14:05 40° E 18:19:46 10° NNE
ATLAS 3B R/B 3.9 18:11:38 10° SE 18:15:40 17° ESE 18:16:55 16° E
CZ-2D R/B 4.0 18:13:36 10° SE 18:16:59 31° ENE 18:20:25 10° N
Cosmos 482 Debris 4.4 18:11:57 10° WNW 18:17:03 70° SW 18:19:44 13° SE
Unknown 2.9 18:14:55 10° WNW 18:17:32 58° SW 18:19:34 15° SE
YAOGAN 6 2.5 18:14:30 10° SSE 18:18:09 77° ENE 18:21:48 10° N
Cosmos 1356 3.9 18:16:41 10° SSW 18:20:04 61° W 18:23:30 10° N
CZ-4 R/B 1.4 18:19:05 10° SSE 18:23:14 89° WSW 18:27:29 10° NNW
Cosmos 1300 3.7 18:20:09 10° SE 18:23:15 24° E 18:24:44 19° NE
CENTAUR R/B 3.6 18:21:42 10° SSE 18:25:40 19° ESE 18:26:01 19° ESE
Lacrosse 5 2.7 18:22:58 10° NNW 18:27:36 34° NNE 18:29:56 23° E
Abrixas rocket 2.4 18:26:00 10° WSW 18:29:02 57° NNW 18:30:26 27° NE
CSL-04 Debris 4.2 18:28:21 10° SSE 18:33:48 89° ENE 18:39:18 10° NNW
Cosmos 2082 Rocket 2.6 18:29:08 10° NNW 18:34:33 41° ENE 18:37:44 22° ESE
BREEZE M DEB (TANK) 2.3 18:33:21 10° NW 18:35:52 69° NNE 18:38:41 24° ESE
Cosmos 1812 Rocket 3.7 18:31:49 10° SSE 18:36:05 50° E 18:40:24 10° NNE
DMSP B5D1-3 4.5 18:31:04 10° NNE 18:36:10 61° ESE 18:41:14 10° S
Cosmos 1076 Rocket 4.0 18:34:08 10° N 18:38:12 37° ENE 18:39:44 28° ESE
Cosmos 1703 4.0 18:34:49 10° NNW 18:38:40 56° W 18:42:29 10° S
USA 238 DEB 3.6 18:37:17 10° SSW 18:43:55 72° ESE 18:50:47 10° NE
USA 238 3.6 18:37:24 10° SSW 18:44:02 71° ESE 18:50:53 10° NE
COSMOS 2406 4.0 18:39:40 10° NNW 18:45:18 55° WSW 18:50:52 10° S
Unknown 2.7 18:42:41 10° NW 18:45:49 87° NE 18:46:15 64° ESE
Unknown 4.5 18:42:52 10° NW 18:45:54 27° NNE 18:46:02 26° NNE
YAOGAN 1 2.9 18:41:46 10° S 18:46:03 66° W 18:50:22 10° NNW
Cosmos 2100 Rocket 4.2 18:43:03 10° N 18:48:56 44° ENE 18:53:07 18° SE
Gbstr 26 Del rocket 4.1 18:45:43 10° NW 18:51:55 68° NNE 18:55:35 31° ESE
Ariane Rocket 2.9 18:50:05 10° SSE 18:55:07 68° ENE 19:00:12 10° N
Shenzhou-11 Module 2.7 18:56:18 10° W 18:58:27 47° W 18:58:27 47° W
EO 1 Delta rocket 4.4 18:55:38 10° S 19:00:09 57° W 19:04:57 10° NNW
In-Cosmos 22 Rocket 4.4 18:55:32 10° N 19:00:40 43° ENE 19:01:11 42° E
STPSAT 2 (USA 217) 4.5 18:56:05 10° NNW 19:00:42 78° ENE 19:02:23 39° SSE
Cosmos 1153 Rocket 4.4 18:56:55 10° N 19:03:04 90° NNE 19:09:13 10° S
Cosmos 2058 3.5 19:02:10 10° N 19:05:13 41° NNE 19:05:13 41° NNE
NOSS 3-2 (A) 3.2 19:02:42 10° SSW 19:08:24 86° SE 19:13:02 20° NE
Cosmos 2016 Rocket 4.3 19:03:08 10° N 19:09:02 41° ENE 19:09:06 41° ENE
Cosmos 2278 Rocket 3.2 19:07:45 10° SW 19:13:11 46° WNW 19:18:39 10° NNE
Cosmos 2297 3.6 19:08:58 10° S 19:14:32 60° ESE 19:15:56 47° ENE
NOSS 3-3 (A) 4.5 19:10:37 10° NNW 19:18:12 73° NE 19:21:38 39° SE
NOSS 3-3 (C) 4.5 19:10:43 10° NNW 19:18:17 73° NE 19:21:41 39° SE
MOS 1 4.1 19:24:06 43° SSE 19:26:04 83° ENE 19:31:45 10° NNW
SPOT 3 Rocket 4.3 19:27:56 38° NNE 19:27:56 38° NNE 19:31:25 10° N
BREEZE-M DEB (TANK) 2.9 19:18:38 10° WSW 19:27:40 64° NNW 19:28:04 60° N
Cosmos 1939 Rocket 4.3 19:28:06 14° SSW 19:31:11 37° W 19:34:58 10° NNW
NOSS 3-2 (C) 3.2 19:27:06 10° SSW 19:32:49 83° ESE 19:34:07 58° NE
IRS-1A Rocket 4.5 19:28:34 16° S 19:32:54 66° WSW 19:38:24 10° NNW
Cosmos 2061 Rocket 3.8 19:27:49 10° N 19:34:03 67° E 19:34:04 67° E
Cosmos 44 3.7 19:29:48 10° SSW 19:33:35 52° SSW 19:33:35 52° SSW
SJ 16-02 3.6 19:31:32 10° N 19:32:27 15° N 19:32:27 15° N
ARGOS 4.2 19:42:35 33° NNE 19:42:35 33° NNE 19:45:40 10° N
H-2A R/B 3.1 19:45:14 36° N 19:45:14 36° N 19:48:28 10° N
Cosmos 1459 Rocket 4.1 19:38:09 10° N 19:44:22 76° W 19:47:26 32° S
ADEOS Rocket 3.3 19:37:39 10° NNE 19:45:20 70° ESE 19:52:21 10° S
Cosmos 1461 4.5 19:43:57 10° NW 19:47:28 32° WSW 19:47:28 32° WSW
Cosmos 1833 Rocket 4.2 19:46:51 10° NW 19:51:48 33° WSW 19:55:41 15° SSW
Cosmos 1898 Rocket 4.5 19:57:45 10° NNW 20:01:14 42° NNW 20:01:14 42° NNW
ATLAS 3B R/B 2.8 19:58:42 10° SSW 20:04:15 63° SW 20:04:15 63° SW
Lacrosse 5 3.2 20:05:50 10° NW 20:09:09 37° W 20:09:09 37° W
H-2A R/B 4.3 19:21:52 10° WSW 20:11:06 52° S 20:13:11 49° SSE
CENTAUR R/B 3.2 20:09:26 10° SW 20:13:19 44° SW 20:13:19 44° SW
Cosmos 2082 Rocket 3.8 20:13:35 10° NW 20:18:25 29° WSW 20:19:38 27° SW
